Printer-friendly version

IAU Minor Planet Center

Minor Planet Center

MPEC 2005-R05 : 2005 QR87

The following Minor Planet Electronic Circular may be linked-to from your own Web pages, but must not otherwise be redistributed electronically.


Read MPEC 2005-R04 Read MPEC 2005-R06


M.P.E.C. 2005-R05                                Issued 2005 Sept. 1, 16:18 UT

     The Minor Planet Electronic Circulars contain information on unusual
         minor planets and routine data on comets.  They are published
   on behalf of Commission 20 of the International Astronomical Union by the
          Minor Planet Center, Smithsonian Astrophysical Observatory,
                          Cambridge, MA 02138, U.S.A.

                  Supported in part by the Brinson Foundation
             Prepared using the Tamkin Foundation Computer Network

                              MPC@CFA.HARVARD.EDU
          URL http://cfa-www.harvard.edu/iau/mpc.html  ISSN 1523-6714

                                   2005 QR87

Observations:
     K05Q87R* C2005 08 31.32521 01 17 27.29 +02 20 09.8          19.0 R ER005699
     K05Q87R  C2005 08 31.34710 01 17 28.03 +02 21 03.1                 ER005699
     K05Q87R  C2005 08 31.36896 01 17 28.89 +02 21 57.0                 ER005699
     K05Q87R  C2005 08 31.39090 01 17 29.66 +02 22 51.8                 ER005699
     K05Q87R  C2005 09 01.05631 01 17 58.39 +02 50 02.2          19   R ER005461
     K05Q87R  C2005 09 01.05792 01 17 58.44 +02 50 06.4                 ER005461
     K05Q87R  C2005 09 01.05952 01 17 58.50 +02 50 10.7                 ER005461
     K05Q87R  C2005 09 01.23213 01 18 05.80 +02 57 49.7          19.5 R ER005I77
     K05Q87R  C2005 09 01.23407 01 18 07.24 +02 57 21.6          19.1 R ER005649
     K05Q87R  C2005 09 01.23643 01 18 05.96 +02 58 00.3          19.3 R ER005I77
     K05Q87R  C2005 09 01.23763 01 18 07.34 +02 57 31.4          19.2 R ER005649
     K05Q87R  C2005 09 01.23855 01 18 06.00 +02 58 05.6          19.4 R ER005I77
     K05Q87R  C2005 09 01.24236 01 18 07.46 +02 57 43.1          19.0 R ER005649
     K05Q87R  C2005 09 01.24651 01 18 07.64 +02 57 53.2          19.2 R ER005649
     K05Q87R  C2005 09 01.25006 01 18 07.76 +02 58 02.2          19.4 R ER005649
     K05Q87R  C2005 09 01.35404 01 18 11.59 +03 02 21.6          18.3 R ER005651
     K05Q87R  C2005 09 01.35514 01 18 11.63 +03 02 24.1          18.3 R ER005651
     K05Q87R  C2005 09 01.35624 01 18 11.67 +03 02 26.5          18.2 R ER005651
     K05Q87R 5C2005 09 01.40347 01 18 13.31 +03 04 21.2          19.0 R ER005673
     K05Q87R 5C2005 09 01.40729 01 18 13.41 +03 04 30.7                 ER005673
     K05Q87R 5C2005 09 01.41250 01 18 13.59 +03 04 43.1                 ER005673
     K05Q87R 5C2005 09 01.41782 01 18 13.75 +03 04 56.4                 ER005673

Observer details:
461 Szeged University, Piszkesteto Stn. (Konkoly).  Observers K. Sarneczky,
    Z. Kuli.  Measurer K. Sarneczky.  0.60-m Schmidt + CCD.
649 Powell Observatory, Louisburg.  Observer R. Trentman.  0.75-m Newtonian
    reflector + CCD.
651 Grasslands Observatory, Tucson.  Observer J. E. McGaha.  0.62-m f/5.1
    Newtonian reflector + CCD.
673 Table Mountain Observatory, Wrightwood.  Observer J. Young.  0.6-m f/16
    Cassegrain + CCD.
699 Lowell Observatory-LONEOS.  Observer B. A. Skiff.  0.59-m LONEOS Schmidt
    + CCD.
I77 CEAMIG-REA Observatory, Belo Horizonte.  Observers C. Jacques, E. Pimentel.
    Measurer C. Jacques.  0.30-m f/3.0 Schmidt-Cassegrain + CCD.

Orbital elements:
2005 QR87
Epoch 2005 Aug. 18.0 TT = JDT 2453600.5                 MPC
M 357.97178              (2000.0)            P               Q
n   0.31813690     Peri.  345.95015     +0.94049580     +0.33946367
a   2.1251684      Node   354.13812     -0.29558638     +0.79517241
e   0.4238169      Incl.    8.57813     -0.16761962     +0.50245921
P   3.10           H   20.4           G   0.15           U   8
Residuals in seconds of arc
050831 699  0.0   0.3+    050901 649  0.7+  0.9-    050901 651  0.1+  0.5+
050831 699  0.7-  0.3-    050901 I77  0.5+  0.1+    050901 651  0.2+  0.1+
050831 699  0.8+  0.2-    050901 649  0.3+  0.1+    050901 673  0.4+  0.1+
050831 699  1.1+  0.5+    050901 I77  0.2+  0.2+    050901 673  0.2+  0.2+
050901 461  0.1+  0.1+    050901 649  0.3-  0.2+    050901 673  0.5+  0.2-
050901 461  0.1+  0.3+    050901 649  0.2+  0.1+    050901 673  0.5+  0.0
050901 461  0.2+  0.7+    050901 649  0.2+  0.3+
050901 I77  0.0   0.1+    050901 651  0.0   0.7+

Ephemeris:
2005 QR87                a,e,i = 2.13, 0.42, 9                   q = 1.2245
Date    TT    R. A. (2000) Decl.     Delta      r     Elong.  Phase     V
2005 08 28    01 14.57   +00 04.0    0.274    1.225   137.0    34.2    19.5
2005 09 07    01 21.04   +06 51.2    0.268    1.232   143.1    29.4    19.3
2005 09 17    01 21.32   +13 09.0    0.271    1.247   150.2    23.6    19.2
2005 09 27    01 16.55   +18 22.5    0.285    1.270   157.3    17.7    19.1
2005 10 07    01 08.94   +22 08.4    0.311    1.300   162.7    13.2    19.2
2005 10 17    01 01.61   +24 26.4    0.349    1.335   163.5    12.2    19.5
2005 10 27    00 57.02   +25 34.3    0.401    1.376   159.4    14.7    19.9
2005 11 06    00 56.43   +25 56.9    0.465    1.421   152.9    18.5    20.5
2005 11 16    01 00.12   +25 57.7    0.542    1.469   145.8    22.2    21.0
2005 11 26    01 07.56   +25 52.2    0.631    1.520   138.7    25.4    21.5
2005 12 06    01 18.08   +25 49.3    0.733    1.572   131.8    27.8    21.9

Kyle E. Smalley              (C) Copyright 2005 MPC           M.P.E.C. 2005-R05

Read MPEC 2005-R04 Read MPEC 2005-R06


Our Web policy. Index to the CBAT/MPC/ICQ pages.


Valid HTML 4.01!